TimeEDT,TemperatureF,Dew PointF,Humidity,Sea Level PressureIn,VisibilityMPH,Wind Direction,Wind SpeedMPH,Gust SpeedMPH,PrecipitationIn,Events,Conditions,WindDirDegrees,DateUTC
12:15 AM,39.2,32.0,75,30.65,10.0,Calm,Calm,-,N/A,,Clear,0,2013-04-22 04:15:00
12:35 AM,37.4,32.0,81,30.64,10.0,Calm,Calm,-,N/A,,Clear,0,2013-04-22 04:35:00
12:55 AM,37.4,32.0,81,30.65,10.0,Calm,Calm,-,N/A,,Clear,0,2013-04-22 04:55:00
1:15 AM,37.4,32.0,81,30.65,10.0,Calm,Calm,-,N/A,,Clear,0,2013-04-22 05:15:00
1:35 AM,37.4,32.0,81,30.65,10.0,Calm,Calm,-,N/A,,Clear,0,2013-04-22 05:35:00
1:55 AM,37.4,32.0,81,30.65,10.0,Calm,Calm,-,N/A,,Clear,0,2013-04-22 05:55:00
2:15 AM,35.6,32.0,87,30.65,10.0,Calm,Calm,-,N/A,,Clear,0,2013-04-22 06:15:00
2:35 AM,33.8,32.0,93,30.65,10.0,Calm,Calm,-,N/A,,Clear,0,2013-04-22 06:35:00
2:55 AM,35.6,32.0,87,30.65,10.0,Calm,Calm,-,N/A,,Clear,0,2013-04-22 06:55:00
3:15 AM,33.8,32.0,93,30.65,10.0,NNE,4.6,-,N/A,,Clear,20,2013-04-22 07:15:00
3:35 AM,35.6,32.0,87,30.64,10.0,North,5.8,-,N/A,,Clear,10,2013-04-22 07:35:00
3:55 AM,35.6,32.0,87,30.64,10.0,NNE,5.8,-,N/A,,Clear,20,2013-04-22 07:55:00
4:15 AM,35.6,32.0,87,30.64,10.0,NNE,5.8,-,N/A,,Clear,30,2013-04-22 08:15:00
4:35 AM,35.6,32.0,87,30.65,10.0,NNE,4.6,-,N/A,,Clear,30,2013-04-22 08:35:00
4:55 AM,35.6,32.0,87,30.65,10.0,NNE,4.6,-,N/A,,Clear,30,2013-04-22 08:55:00
5:15 AM,35.6,32.0,87,30.66,10.0,NNE,4.6,-,N/A,,Clear,30,2013-04-22 09:15:00
5:35 AM,35.6,32.0,87,30.66,10.0,NE,4.6,-,N/A,,Clear,40,2013-04-22 09:35:00
5:55 AM,35.6,32.0,87,30.67,10.0,NE,5.8,-,N/A,,Clear,40,2013-04-22 09:55:00
6:15 AM,37.4,32.0,81,30.67,10.0,NE,5.8,-,N/A,,Clear,40,2013-04-22 10:15:00
6:35 AM,37.4,32.0,81,30.67,10.0,NE,6.9,-,N/A,,Clear,50,2013-04-22 10:35:00
6:55 AM,39.2,32.0,75,30.68,10.0,NE,6.9,-,N/A,,Clear,50,2013-04-22 10:55:00
7:15 AM,41.0,32.0,70,30.67,10.0,ENE,9.2,-,N/A,,Clear,70,2013-04-22 11:15:00
7:35 AM,42.8,30.2,61,30.67,10.0,ENE,10.4,17.3,N/A,,Clear,70,2013-04-22 11:35:00
7:55 AM,42.8,26.6,53,30.66,10.0,East,12.7,18.4,N/A,,Clear,80,2013-04-22 11:55:00
8:15 AM,44.6,28.4,53,30.67,10.0,ENE,8.1,16.1,N/A,,Clear,70,2013-04-22 12:15:00
8:35 AM,44.6,23.0,43,30.68,10.0,East,13.8,21.9,N/A,,Clear,100,2013-04-22 12:35:00
8:55 AM,46.4,24.8,43,30.69,10.0,ESE,10.4,-,N/A,,Clear,120,2013-04-22 12:55:00
9:15 AM,46.4,24.8,43,30.68,10.0,East,13.8,23.0,N/A,,Clear,100,2013-04-22 13:15:00
9:35 AM,48.2,24.8,40,30.67,10.0,ESE,10.4,17.3,N/A,,Clear,110,2013-04-22 13:35:00
9:55 AM,48.2,23.0,37,30.67,10.0,East,10.4,21.9,N/A,,Clear,100,2013-04-22 13:55:00
10:15 AM,48.2,23.0,37,30.67,10.0,East,10.4,16.1,N/A,,Clear,90,2013-04-22 14:15:00
10:35 AM,48.2,23.0,37,30.66,10.0,ENE,8.1,16.1,N/A,,Clear,70,2013-04-22 14:35:00
10:55 AM,50.0,23.0,35,30.65,10.0,East,10.4,18.4,N/A,,Clear,100,2013-04-22 14:55:00
11:15 AM,51.8,23.0,33,30.65,10.0,SSE,16.1,20.7,N/A,,Clear,160,2013-04-22 15:15:00
11:35 AM,51.8,24.8,35,30.65,10.0,ESE,6.9,19.6,N/A,,Clear,120,2013-04-22 15:35:00
11:55 AM,51.8,28.4,41,30.64,10.0,SE,11.5,-,N/A,,Clear,140,2013-04-22 15:55:00
12:15 PM,51.8,28.4,41,30.63,10.0,SE,10.4,-,N/A,,Clear,140,2013-04-22 16:15:00
12:35 PM,51.8,28.4,41,30.63,10.0,SE,8.1,17.3,N/A,,Partly Cloudy,140,2013-04-22 16:35:00
12:55 PM,51.8,28.4,41,30.60,10.0,SE,10.4,19.6,N/A,,Clear,130,2013-04-22 16:55:00
1:15 PM,51.8,30.2,44,30.61,9.0,SE,10.4,18.4,N/A,,Clear,140,2013-04-22 17:15:00
1:35 PM,51.8,30.2,44,30.61,10.0,SE,10.4,18.4,N/A,,Partly Cloudy,140,2013-04-22 17:35:00
1:55 PM,51.8,30.2,44,30.59,10.0,SE,10.4,19.6,N/A,,Clear,140,2013-04-22 17:55:00
2:15 PM,51.8,30.2,44,30.58,10.0,SSE,12.7,18.4,N/A,,Clear,160,2013-04-22 18:15:00
2:35 PM,51.8,30.2,44,30.59,10.0,SE,15.0,18.4,N/A,,Clear,140,2013-04-22 18:35:00
2:55 PM,51.8,28.4,41,30.58,10.0,SSE,10.4,21.9,N/A,,Clear,150,2013-04-22 18:55:00
3:15 PM,50.0,28.4,43,30.57,10.0,SE,13.8,23.0,N/A,,Clear,140,2013-04-22 19:15:00
3:35 PM,50.0,30.2,47,30.57,10.0,SE,12.7,23.0,N/A,,Clear,140,2013-04-22 19:35:00
3:55 PM,50.0,32.0,50,30.56,10.0,ESE,16.1,23.0,N/A,,Clear,120,2013-04-22 19:55:00
4:15 PM,48.2,32.0,54,30.56,10.0,ESE,11.5,19.6,N/A,,Clear,120,2013-04-22 20:15:00
4:35 PM,48.2,32.0,54,30.56,10.0,ESE,12.7,24.2,N/A,,Clear,120,2013-04-22 20:35:00
4:55 PM,48.2,32.0,54,30.56,10.0,SE,12.7,24.2,N/A,,Clear,130,2013-04-22 20:55:00
5:15 PM,46.4,33.8,62,30.56,10.0,SE,16.1,24.2,N/A,,Clear,130,2013-04-22 21:15:00
5:35 PM,46.4,33.8,62,30.56,10.0,SE,12.7,20.7,N/A,,Clear,130,2013-04-22 21:35:00
5:55 PM,46.4,33.8,62,30.56,9.0,SE,9.2,18.4,N/A,,Clear,130,2013-04-22 21:55:00
6:15 PM,46.4,33.8,62,30.56,10.0,ESE,11.5,18.4,N/A,,Clear,120,2013-04-22 22:15:00
6:35 PM,46.4,33.8,62,30.55,10.0,ESE,9.2,-,N/A,,Clear,120,2013-04-22 22:35:00
6:55 PM,44.6,33.8,66,30.56,10.0,ESE,6.9,-,N/A,,Clear,110,2013-04-22 22:55:00
7:15 PM,44.6,32.0,61,30.56,10.0,East,6.9,-,N/A,,Clear,100,2013-04-22 23:15:00
7:35 PM,44.6,32.0,61,30.55,10.0,East,9.2,-,N/A,,Clear,100,2013-04-22 23:35:00
7:55 PM,44.6,32.0,61,30.55,10.0,ESE,6.9,-,N/A,,Clear,110,2013-04-22 23:55:00
8:15 PM,42.8,33.8,70,30.56,10.0,ESE,5.8,-,N/A,,Clear,110,2013-04-23 00:15:00
8:35 PM,42.8,33.8,70,30.56,10.0,East,4.6,-,N/A,,Clear,100,2013-04-23 00:35:00
8:55 PM,42.8,33.8,70,30.56,10.0,East,4.6,-,N/A,,Clear,90,2013-04-23 00:55:00
9:15 PM,42.8,33.8,70,30.55,10.0,East,5.8,-,N/A,,Clear,80,2013-04-23 01:15:00
9:35 PM,42.8,33.8,70,30.55,10.0,East,4.6,-,N/A,,Partly Cloudy,80,2013-04-23 01:35:00
9:55 PM,41.0,33.8,76,30.55,10.0,East,8.1,-,N/A,,Partly Cloudy,80,2013-04-23 01:55:00
10:15 PM,42.8,32.0,66,30.54,10.0,East,9.2,17.3,N/A,,Partly Cloudy,90,2013-04-23 02:15:00
10:35 PM,41.0,32.0,70,30.54,10.0,East,6.9,-,N/A,,Clear,90,2013-04-23 02:35:00
10:55 PM,41.0,32.0,70,30.54,10.0,ENE,9.2,-,N/A,,Clear,70,2013-04-23 02:55:00
11:15 PM,39.2,32.0,75,30.53,10.0,ENE,9.2,-,N/A,,Scattered Clouds,70,2013-04-23 03:15:00
11:35 PM,39.2,32.0,75,30.53,10.0,ENE,10.4,-,N/A,,Mostly Cloudy,70,2013-04-23 03:35:00
11:55 PM,39.2,32.0,75,30.52,10.0,ENE,9.2,-,N/A,,Overcast,70,2013-04-23 03:55:00